Theta_e
350 352 351 352 353 354 353 354 355 357 359 360 361 359 359 358 357 357 361 360 359 361 360 359 359 360 355 359 360 357 362 359 346 348 354 358 359 359 357 354 348 349 342
350 352 352 353 353 352 353 354 355 356 359 361 360 359 357 357 357 357 356 357 358 358 358 359 358 356 360 360 356 359 358 360 355 349 356 357 359 360 359 354 350 347 346
350 350 350 351 352 352 353 354 356 357 358 359 359 358 357 355 356 359 360 360 359 359 359 358 358 358 357 358 356 355 354 354 357 349 349 354 354 354 352 351 349 346 341
349 349 350 350 351 352 354 355 355 357 357 358 359 359 358 357 357 359 360 359 358 358 360 360 359 359 359 358 356 357 355 354 353 351 350 350 353 356 350 349 347 346 344
350 349 350 352 354 354 355 355 356 356 356 357 359 359 359 359 358 358 360 360 358 357 358 359 360 355 342 343 357 359 356 352 350 352 349 348 347 350 348 351 346 347 346
351 351 353 353 353 354 355 356 356 356 357 357 356 356 356 359 338 339 348 360 359 357 357 357 358 348 344 335 334 334 338 350 350 347 345 345 346 346 346 346 343 339 339
349 350 351 353 353 354 355 356 355 355 356 356 357 357 356 358 331 334 339 357 359 357 355 354 354 346 344 348 337 331 328 327 330 344 342 333 337 335 334 342 342 342 336
346 343 349 349 350 353 353 354 355 355 356 356 356 357 356 342 327 327 333 354 354 350 348 346 348 344 336 340 347 335 329 322 330 332 332 330 331 332 334 334 335 328 326
341 339 346 348 348 348 350 350 351 352 351 349 351 349 343 333 323 324 331 345 339 337 338 337 339 339 322 324 343 331 328 325 321 320 320 319 318 318 322 332 330 334 323
338 341 340 343 345 345 347 348 345 345 338 334 333 334 328 330 319 321 331 336 329 328 328 328 321 327 316 321 338 329 321 320 323 322 321 319 319 319 319 321 324 326 323
340 343 343 342 344 344 345 342 339 333 329 326 325 325 327 329 328 318 324 333 329 328 327 327 327 314 312 314 322 333 325 325 323 322 321 320 320 319 320 317 318 322 323
340 337 336 340 341 341 338 334 331 326 322 320 320 320 323 324 319 318 320 322 324 325 321 323 317 310 309 313 321 314 316 323 325 321 318 317 317 317 318 321 325 324 323
337 334 335 331 329 330 328 326 324 325 322 321 321 319 317 318 318 314 315 316 318 324 324 316 311 309 312 316 314 316 320 328 322 318 317 316 315 315 317 319 324 325 323
332 328 326 327 323 322 326 326 325 322 321 321 319 316 316 316 317 319 319 318 317 320 318 320 316 316 314 318 321 321 324 324 323 321 314 314 315 314 313 315 315 317 318
325 322 321 320 315 310 306 309 318 316 321 322 321 318 317 315 313 309 316 321 322 317 318 320 320 321 320 318 317 317 318 319 317 316 315 314 313 313 313 314 313 313 312
323 323 320 319 318 317 314 310 302 304 305 305 308 315 316 309 302 300 299 299 302 306 318 318 317 318 318 317 315 314 314 313 313 313 313 313 312 311 312 313 312 311 309
326 322 321 320 321 321 321 323 314 307 300 298 298 300 302 300 297 295 296 298 301 308 318 317 317 316 315 314 313 312 311 314 317 314 313 311 310 310 310 309 309 309 308
323 314 321 320 318 317 317 316 316 316 314 312 299 300 295 294 294 295 297 303 313 313 316 315 314 314 314 313 312 312 314 314 314 313 313 312 311 309 308 308 308 308 307
322 321 319 319 318 315 315 316 315 314 312 309 308 302 298 293 293 294 297 316 315 314 316 316 317 316 315 314 314 314 316 314 314 314 313 312 312 310 309 309 308 302 304
322 318 319 319 317 318 316 317 316 314 314 312 311 310 306 302 308 311 316 317 317 316 316 317 318 318 317 317 317 316 316 315 316 316 316 316 315 314 312 312 311 309 309
325 323 320 322 320 319 318 316 317 314 312 311 311 310 302 315 315 316 315 316 315 316 319 319 319 320 320 320 318 317 316 315 316 316 315 316 316 314 315 314 312 312 310
322 321 320 317 316 316 315 313 311 310 309 309 310 307 296 314 315 315 316 316 316 319 320 321 320 320 320 320 320 319 317 316 315 316 316 316 316 315 313 313 313 312 310
319 318 319 319 320 314 315 314 312 312 312 313 313 312 310 313 315 316 316 317 317 317 318 319 319 319 321 322 321 320 319 318 318 319 317 316 315 314 313 311 311 311 309
317 317 317 317 317 317 318 318 317 308 312 312 313 313 313 314 314 316 317 318 318 318 318 318 318 317 317 318 319 319 320 321 321 321 321 319 315 310 312 309 308 308 307
319 317 317 318 316 316 317 317 318 319 318 316 314 315 316 316 315 314 315 314 316 316 318 318 317 317 317 316 316 314 300 289 302 296 314 318 318 317 314 310 306 305 305
320 320 318 318 320 321 319 317 317 318 318 318 319 318 317 317 315 313 317 319 317 317 318 317 317 317 316 315 311 294 286 286 297 288 310 315 315 314 312 309 306 305 306
Wind_Speed
15 14 14 13 12 11 9 8 9 7 7 7 7 6 6 6 6 7 7 7 5 4 4 4 5 4 5 3 3 4 3 3 6 5 4 3 4 4 2 0 3 0 4
15 14 15 14 13 12 11 10 9 8 8 8 7 7 6 6 5 7 9 6 6 6 5 5 5 4 5 3 4 4 4 4 3 7 5 3 4 2 3 4 2 1 1
15 15 14 15 14 14 13 12 11 9 8 8 8 9 8 7 7 8 7 6 7 6 6 6 6 5 4 3 4 4 4 4 4 6 6 4 4 2 3 3 3 2 2
14 15 15 15 16 14 13 12 11 11 10 10 9 9 7 7 7 8 7 7 6 6 6 7 7 6 6 5 4 4 4 5 5 6 6 6 5 2 3 4 4 4 4
13 13 13 13 12 11 11 12 11 11 10 10 9 8 8 8 7 9 8 7 6 7 6 6 7 3 5 5 4 3 4 5 4 5 5 5 4 3 4 2 4 3 3
9 10 10 10 11 12 12 11 10 10 10 10 11 10 10 6 4 6 9 6 7 7 6 5 3 5 5 3 4 8 6 5 6 5 5 5 5 5 4 4 2 2 2
4 4 7 8 10 11 10 10 11 11 10 10 11 10 10 9 3 4 7 7 7 5 4 4 3 2 1 1 7 9 9 8 5 5 3 4 3 5 5 5 2 2 2
4 4 6 7 8 9 10 10 9 8 9 9 8 8 5 4 5 5 2 4 3 1 2 1 1 2 4 3 1 6 8 8 7 6 8 7 6 6 4 3 3 4 3
8 5 6 6 7 8 9 8 6 6 5 4 4 6 8 6 4 2 3 4 5 3 4 3 3 2 4 3 5 7 8 9 9 12 11 8 9 12 10 2 4 2 2
4 10 9 10 11 11 11 9 5 4 6 6 6 7 8 7 4 1 3 5 6 4 4 5 7 5 5 5 6 7 7 4 5 4 4 6 6 7 12 8 4 4 2
5 5 9 7 11 10 10 5 7 7 8 9 8 6 6 4 5 3 6 5 4 5 3 3 4 6 7 8 4 6 5 6 6 5 4 4 5 5 5 4 5 5 4
4 5 5 3 3 3 7 6 8 10 11 10 10 5 3 4 4 6 9 7 7 6 4 4 5 7 9 8 8 10 10 8 5 5 5 5 5 6 6 6 7 7 7
5 5 5 7 6 5 6 7 6 7 8 7 7 5 5 3 3 10 13 11 12 7 5 7 6 7 9 11 10 6 6 6 6 6 6 5 5 5 4 4 6 6 7
4 5 5 6 8 6 5 4 5 5 6 6 6 6 5 3 4 3 4 10 10 8 8 6 7 10 11 8 6 5 5 4 5 6 6 4 3 3 5 4 4 3 4
6 5 5 5 6 6 6 5 4 5 3 6 6 7 7 6 2 1 4 6 7 7 7 6 5 5 6 6 6 6 5 5 6 5 5 5 5 5 6 5 5 5 5
5 4 4 5 4 5 5 7 17 11 10 11 11 8 4 9 9 8 9 10 8 7 5 5 5 5 6 6 6 5 6 6 6 6 6 5 5 5 5 5 5 5 5
6 5 4 4 4 5 5 7 8 9 17 15 11 11 9 11 9 7 8 9 9 5 5 5 5 5 5 5 5 5 6 6 4 5 6 5 5 5 4 5 4 4 5
5 6 4 5 5 5 6 6 6 6 7 7 11 7 9 8 8 7 8 9 5 4 6 6 6 5 5 5 5 5 5 5 5 5 5 6 5 5 5 5 5 5 5
5 4 4 4 5 5 4 5 6 6 6 7 7 5 6 7 7 5 3 3 6 6 5 6 5 5 5 5 5 4 4 5 4 4 4 4 4 4 4 4 5 4 3
5 8 6 5 5 6 6 6 6 7 8 7 7 7 6 4 6 6 4 4 4 5 6 7 6 5 5 6 5 5 4 4 4 3 2 2 2 1 2 2 3 3 3
6 6 6 7 6 6 6 6 6 7 8 6 6 6 5 5 7 7 6 5 5 5 5 6 6 6 5 5 5 5 4 4 4 4 4 4 3 2 0 1 3 3 4
6 6 6 6 6 6 6 6 6 6 7 7 6 6 4 5 6 6 5 5 5 4 4 4 4 5 4 4 4 5 5 5 5 4 4 4 4 5 3 3 2 2 3
6 7 6 5 5 6 5 6 6 6 6 6 7 7 7 5 6 6 5 5 4 4 3 3 4 3 3 3 4 5 6 6 4 4 5 6 6 5 6 5 3 2 5
6 7 6 5 5 6 6 6 6 6 6 6 6 6 6 6 6 6 5 4 4 4 4 5 5 5 4 3 2 3 3 3 4 6 9 7 6 5 6 5 3 4 4
6 6 6 5 6 5 5 6 7 8 8 7 7 6 5 6 6 6 5 5 4 5 7 5 5 5 6 4 0 3 6 3 6 6 6 7 8 7 7 5 2 3 4
6 6 6 6 6 5 5 5 6 7 8 8 8 8 8 8 7 6 6 5 6 6 6 6 6 5 4 2 4 5 1 3 6 5 7 6 5 4 5 6 4 3 6
Wind_Direction
214 213 216 214 216 222 220 224 228 233 225 222 220 225 224 219 220 242 257 260 253 250 238 259 276 269 274 255 246 255 242 222 282 306 294 320 276 257 221 191 181 222 110
217 213 213 213 213 218 224 221 221 226 226 227 220 216 219 219 235 240 243 256 251 252 253 242 253 254 259 265 282 290 274 267 276 288 303 293 249 265 274 249 246 297 337
216 215 215 216 215 216 221 228 216 215 229 237 228 227 224 225 234 241 251 251 246 240 253 254 263 257 263 278 276 286 276 284 267 277 293 294 299 227 217 228 237 224 233
215 218 215 215 215 218 212 219 224 217 218 230 238 239 234 228 237 244 239 253 246 252 256 261 263 253 255 251 256 258 280 285 280 271 286 293 288 127 272 276 235 223 232
223 222 224 225 224 221 215 211 218 219 225 230 233 240 238 233 240 242 239 237 247 251 252 256 261 331 36 4 296 290 276 277 288 285 280 280 285 275 285 349 300 315 228
223 229 232 225 224 217 215 214 208 219 223 223 231 237 248 245 273 237 257 239 248 250 254 266 282 150 144 142 74 63 37 302 295 300 301 311 316 325 328 304 265 231 282
186 219 229 217 222 222 214 212 206 209 215 221 233 234 241 248 177 216 221 247 242 234 244 249 231 134 208 187 124 127 77 46 21 321 310 34 337 350 314 299 314 306 30
247 183 206 203 209 210 203 199 201 202 214 216 226 236 228 117 83 59 355 224 230 156 103 124 185 138 47 319 146 91 74 54 45 65 70 69 35 354 290 339 349 98 89
258 267 251 225 184 175 173 167 168 161 179 215 181 154 138 122 107 125 224 123 116 116 84 58 83 93 6 279 150 127 107 92 79 82 88 77 44 29 17 270 25 303 92
236 236 240 234 229 231 238 236 189 146 131 121 98 104 120 124 73 192 226 129 136 134 113 97 53 46 13 33 141 140 125 138 139 119 87 66 46 41 41 44 5 46 50
309 319 236 216 234 235 234 173 157 143 122 98 94 89 100 111 96 160 154 133 139 131 132 111 76 39 56 55 85 133 121 125 106 95 84 75 68 56 47 42 46 45 55
19 36 25 200 205 166 143 126 129 127 118 118 109 97 66 99 110 95 115 118 122 120 131 111 89 72 68 72 85 104 120 131 123 109 92 67 51 42 43 44 61 62 64
77 50 50 80 45 69 119 123 120 120 120 127 127 128 102 352 91 89 102 116 96 107 112 84 89 90 97 80 56 88 156 126 119 106 92 80 67 55 58 90 85 97 83
102 69 52 59 65 44 64 77 103 105 113 112 119 103 101 96 75 89 114 86 105 105 121 98 83 82 76 98 111 83 76 87 90 95 95 82 75 66 61 33 49 39 66
111 102 86 83 85 81 54 29 65 50 70 129 132 134 140 128 137 50 123 134 128 125 131 145 134 123 105 99 93 87 90 87 91 96 91 78 68 63 57 46 48 60 57
115 116 108 108 102 102 98 78 45 52 65 84 99 131 92 99 136 118 97 98 109 141 126 127 113 117 115 111 106 98 89 89 86 90 83 66 57 47 58 61 56 50 45
132 137 121 112 129 137 138 131 114 69 63 51 72 83 96 131 112 99 107 118 134 144 135 126 126 120 111 116 109 110 111 94 105 91 82 76 69 67 54 58 56 43 49
120 112 123 134 140 137 125 119 121 121 113 99 48 81 90 107 116 132 142 143 134 150 131 132 129 129 125 119 115 118 119 120 109 100 92 79 72 64 66 59 55 42 36
134 129 129 114 118 110 95 106 113 107 111 120 128 101 96 97 102 110 200 175 144 137 130 120 121 128 127 125 121 123 123 115 113 119 94 82 74 73 80 67 86 53 327
106 112 113 126 136 131 129 133 141 135 142 150 150 142 146 162 166 166 164 159 150 140 153 146 147 137 132 137 144 144 158 171 159 171 149 128 101 26 63 59 39 10 9
143 146 134 147 141 140 136 148 146 143 142 164 156 153 155 171 150 152 150 155 144 140 142 152 162 165 160 154 155 162 185 190 195 209 217 201 217 248 301 352 326 330 333
152 151 154 143 134 146 147 143 147 151 162 159 157 148 192 187 163 162 158 155 141 137 142 141 157 184 173 181 183 206 210 215 213 219 230 233 226 223 234 246 279 313 331
162 161 159 159 160 141 160 152 157 164 166 167 164 164 187 198 189 183 179 179 174 169 159 188 188 180 185 211 231 248 254 254 250 242 241 240 234 229 221 237 245 291 314
167 170 171 170 177 184 187 181 180 177 187 190 190 187 198 200 204 199 206 200 204 205 206 212 213 211 193 219 213 247 258 299 292 264 255 249 235 217 233 229 231 243 293
184 184 183 168 170 185 174 193 192 195 200 208 209 210 212 216 215 213 205 202 201 213 214 211 208 190 180 168 191 314 53 348 282 327 271 255 253 245 230 208 191 252 277
182 179 190 182 184 182 193 201 202 196 200 204 209 212 215 213 211 199 209 209 199 192 179 165 154 153 153 128 56 33 331 289 281 233 264 237 227 210 193 196 187 245 269